Change the Weather History Date:

Friday, October 11, 2013

  Actual Average (PAKU) Record (PAKU)
Temperature  
Mean Temperature 18 °F -  
Max Temperature 24 °F 21 °F 38 °F (1993)
Min Temperature 12 °F 14 °F -14 °F (1996)
Degree Days  
Heating Degree Days 48    
Moisture  
Dew Point 16 °F    
Average Humidity 96    
Maximum Humidity 100    
Minimum Humidity 92    
Precipitation  
Precipitation 0.00 in - - ()
Sea Level Pressure  
Sea Level Pressure 29.68 in    
Wind  
Wind Speed 6 mph (ENE)    
Max Wind Speed 10 mph    
Max Gust Speed -    
Visibility 7 miles    
Events Fog , Rain    
Averages and records for this station are not official NWS values.
T = Trace of Precipitation, MM = Missing Value Source: NWS Daily Summary

Daily Weather History Graph

Daily Weather History Graph

Search for Another Location

Airport or City:

Trip Planner

Search our weather history database for the weather conditions in past years. The results will help you decide how hot, cold, wet, or windy it might be!

Date:

Astronomy

Oct. 11, 2013 Rise Set
Actual Time 9:03 AM AKDT 6:36 PM AKDT
Civil Twilight 8:00 AM AKDT 7:38 PM AKDT
Nautical Twilight 6:48 AM AKDT 8:49 PM AKDT
Astronomical Twilight 5:32 AM AKDT 10:05 PM AKDT
Moon 5:59 PM AKDT (10/11) 10:34 PM AKDT (10/11)
Length of Visible Light 11h 38m
Length of Day
9h 33m
Waxing Crescent, 49% of the Moon is Illuminated
Oct 11
Waxing Crescent
Oct 11
First Quarter
Oct 18
Full
Oct 26
Last Quarter
Nov 3
New

Hourly Weather History & Observations

Time (AKDT) Temp. Windchill Dew Point Humidity Pressure Visibility Wind Dir Wind Speed Gust Speed Precip Events Conditions
12:24 AM 14.0 °F 5.1 °F 14.0 °F 100% 29.65 in 2.5 mi South 5.8 mph - N/A   Scattered Clouds
12:32 AM 14.0 °F 3.9 °F 14.0 °F 100% 29.65 in 1.2 mi SSE 6.9 mph - N/A   Scattered Clouds
12:41 AM 14.0 °F 6.5 °F 14.0 °F 100% 29.65 in 3.0 mi South 4.6 mph - N/A   Partly Cloudy
12:53 AM 14.0 °F 6.5 °F 12.9 °F 95% 29.66 in 10.0 mi South 4.6 mph - N/A   Clear
1:08 AM 14.0 °F 6.5 °F 12.2 °F 93% 29.66 in 10.0 mi South 4.6 mph - N/A   Mostly Cloudy
1:53 AM 14.0 °F 8.2 °F 12.9 °F 95% 29.66 in 10.0 mi ESE 3.5 mph - N/A   Overcast
2:53 AM 16.0 °F 10.4 °F 15.1 °F 96% 29.66 in 10.0 mi ENE 3.5 mph - N/A   Mostly Cloudy
3:07 AM 17.6 °F 12.3 °F 15.8 °F 93% 29.66 in 10.0 mi ENE 3.5 mph - N/A   Scattered Clouds
3:31 AM 15.8 °F 7.2 °F 15.8 °F 100% 29.66 in 10.0 mi ENE 5.8 mph - N/A   Partly Cloudy
3:53 AM 14.0 °F 3.9 °F 14.0 °F 100% 29.66 in 4.0 mi ENE 6.9 mph - N/A   Mostly Cloudy
4:09 AM 15.8 °F 6.1 °F 14.0 °F 93% 29.66 in 1.5 mi NE 6.9 mph - N/A   Overcast
4:41 AM 12.2 °F 1.7 °F 12.2 °F 100% 29.66 in 0.8 mi ENE 6.9 mph - N/A   Mist
4:53 AM 12.0 °F 1.5 °F 12.0 °F 100% 29.67 in 0.8 mi ENE 6.9 mph - N/A   Mist
5:01 AM 12.2 °F 1.7 °F 12.2 °F 100% 29.67 in 1.0 mi ENE 6.9 mph - N/A   Mist
5:09 AM 12.2 °F 1.7 °F 12.2 °F 100% 29.67 in 0.5 mi ENE 6.9 mph - N/A Fog Light Freezing Fog
5:23 AM 12.2 °F 1.7 °F 12.2 °F 100% 29.67 in 1.2 mi ENE 6.9 mph - N/A   Overcast
5:41 AM 12.2 °F 2.9 °F 12.2 °F 100% 29.67 in 2.5 mi NE 5.8 mph - N/A   Mostly Cloudy
5:53 AM 14.0 °F 5.1 °F 12.9 °F 95% 29.67 in 2.0 mi NE 5.8 mph - N/A   Overcast
6:14 AM 14.0 °F 3.9 °F 14.0 °F 100% 29.67 in 1.0 mi ENE 6.9 mph - N/A   Mist
6:53 AM 14.0 °F 5.1 °F 12.9 °F 95% 29.68 in 2.0 mi ENE 5.8 mph - N/A   Overcast
7:02 AM 14.0 °F 5.1 °F 14.0 °F 100% 29.67 in 9.0 mi ENE 5.8 mph - N/A   Overcast
7:53 AM 14.0 °F 3.9 °F 14.0 °F 100% 29.67 in 10.0 mi ENE 6.9 mph - N/A   Mostly Cloudy
8:04 AM 14.0 °F 5.1 °F 14.0 °F 100% 29.67 in 10.0 mi ENE 5.8 mph - N/A   Scattered Clouds
8:12 AM 15.8 °F 7.2 °F 14.0 °F 93% 29.67 in 9.0 mi ENE 5.8 mph - N/A   Mostly Cloudy
8:18 AM 15.8 °F 8.6 °F 15.8 °F 100% 29.67 in 1.5 mi ENE 4.6 mph - N/A   Mostly Cloudy
8:28 AM 15.8 °F 7.2 °F 15.8 °F 100% 29.66 in 0.5 mi ENE 5.8 mph - N/A Fog Light Freezing Fog
8:51 AM 15.8 °F 8.6 °F 15.8 °F 100% 29.66 in 1.0 mi ENE 4.6 mph - N/A   Overcast
8:53 AM 16.0 °F 8.8 °F 16.0 °F 100% 29.67 in 1.2 mi ENE 4.6 mph - N/A   Overcast
9:00 AM 17.6 °F 9.3 °F 15.8 °F 93% 29.66 in 3.0 mi ENE 5.8 mph - N/A   Overcast
9:53 AM 18.0 °F 11.1 °F 17.1 °F 96% 29.67 in 10.0 mi East 4.6 mph - 0.00 in   Overcast
10:25 AM 17.6 °F 5.7 °F 17.6 °F 100% 29.67 in 10.0 mi East 10.4 mph - 0.00 in   Overcast
10:53 AM 17.1 °F 6.6 °F 16.0 °F 96% 29.68 in 10.0 mi East 8.1 mph - 0.00 in   Mostly Cloudy
11:40 AM 17.6 °F 9.3 °F 15.8 °F 93% 29.68 in 10.0 mi ENE 5.8 mph - 0.00 in Rain Light Freezing Rain
11:53 AM 17.1 °F 7.6 °F 16.0 °F 96% 29.69 in 10.0 mi ENE 6.9 mph - 0.00 in Rain Light Freezing Rain
12:19 PM 17.6 °F 7.3 °F 15.8 °F 93% 29.68 in 10.0 mi ENE 8.1 mph - 0.00 in   Overcast
12:53 PM 19.0 °F 8.2 °F 17.1 °F 92% 29.70 in 10.0 mi ENE 9.2 mph - 0.00 in   Overcast
1:53 PM 19.9 °F 10.1 °F 19.0 °F 96% 29.70 in 10.0 mi East 8.1 mph - 0.00 in   Overcast
2:53 PM 21.0 °F 11.4 °F 19.0 °F 92% 29.70 in 10.0 mi East 8.1 mph - 0.00 in   Overcast
3:53 PM 21.0 °F 12.4 °F 19.9 °F 96% 29.70 in 10.0 mi East 6.9 mph - N/A   Overcast
4:53 PM 21.9 °F 11.7 °F 19.9 °F 92% 29.70 in 10.0 mi East 9.2 mph - N/A   Overcast
5:53 PM 21.9 °F 13.4 °F 19.9 °F 92% 29.70 in 10.0 mi East 6.9 mph - N/A   Scattered Clouds
6:53 PM 21.9 °F 14.5 °F 19.9 °F 92% 29.70 in 10.0 mi East 5.8 mph - N/A   Overcast
7:53 PM 21.9 °F 13.4 °F 19.9 °F 92% 29.70 in 10.0 mi East 6.9 mph - 0.00 in   Overcast
8:53 PM 21.9 °F 14.5 °F 19.9 °F 92% 29.71 in 10.0 mi ESE 5.8 mph - 0.00 in   Overcast
9:53 PM 23.0 °F 15.8 °F 21.0 °F 92% 29.70 in 10.0 mi ENE 5.8 mph - N/A   Overcast
10:53 PM 23.0 °F 18.4 °F 21.9 °F 96% 29.71 in 10.0 mi ENE 3.5 mph - N/A   Overcast
11:53 PM 24.1 °F 19.7 °F 23.0 °F 96% 29.72 in 10.0 mi ENE 3.5 mph - N/A   Overcast